Chatham, MA

4:37 AM EDT on April 23, 2018 (GMT -0400)
Chatham Municipal

Weather History for KCQX - June, 2012

Change the Weather History Date:

Sunday, June 17, 2012

  Actual Average Record
Temperature  
Mean Temperature 58 °F -  
Max Temperature 63 °F 68 °F 81 °F (2006)
Min Temperature 55 °F 55 °F 43 °F (2003)
Degree Days  
Heating Degree Days 6    
Growing Degree Days 8 (Base 50)    
Moisture  
Dew Point 50 °F    
Average Humidity 73    
Maximum Humidity 86    
Minimum Humidity 64    
Precipitation  
Precipitation 0.00 in - - ()
Sea Level Pressure  
Sea Level Pressure 30.22 in    
Wind  
Wind Speed 9 mph (ENE)    
Max Wind Speed 15 mph    
Max Gust Speed 21 mph    
Visibility 10 miles    
Events      
Averages and records for this station are not official NWS values.
T = Trace of Precipitation, MM = Missing Value Source: NWS Daily Summary

Daily Weather History Graph

Daily Weather History Graph

Search for Another Location

Airport or City:

Astronomy

Jun. 17, 2012 Rise Set
Actual Time 5:05 AM EDT 8:17 PM EDT
Civil Twilight 4:30 AM EDT 8:51 PM EDT
Nautical Twilight 3:46 AM EDT 9:35 PM EDT
Astronomical Twilight 2:53 AM EDT 10:28 PM EDT
Moon 3:32 AM EDT (6/17) 6:42 PM EDT (6/17)
Length of Visible Light 16h 20m
Length of Day
15h 12m
Waning Crescent, 4% of the Moon is Illuminated
Jun 17
Waning Crescent
Jun 19
New
Jun 26
First Quarter
Jul 3
Full
Jul 10
Last Quarter

Hourly Weather History & Observations

Time (EDT) Temp. Dew Point Humidity Pressure Visibility Wind Dir Wind Speed Gust Speed Precip Events Conditions
12:52 AM 57.0 °F 48.9 °F 74% 30.27 in 10.0 mi ENE 8.1 mph - N/A   Overcast
1:52 AM 57.0 °F 50.0 °F 77% 30.25 in 10.0 mi ENE 8.1 mph - N/A   Overcast
2:52 AM 57.0 °F 51.1 °F 81% 30.25 in 10.0 mi NE 6.9 mph - N/A   Overcast
3:52 AM 57.0 °F 51.1 °F 81% 30.25 in 10.0 mi NE 6.9 mph - N/A   Overcast
4:52 AM 57.0 °F 51.1 °F 81% 30.25 in 10.0 mi NE 6.9 mph - N/A   Overcast
5:50 AM 55.4 °F 50.0 °F 82% 30.24 in 10.0 mi NE 9.2 mph - N/A   Mostly Cloudy
5:52 AM 55.9 °F 50.0 °F 80% 30.25 in 10.0 mi NE 6.9 mph - N/A   Mostly Cloudy
6:29 AM 57.2 °F 51.8 °F 82% 30.25 in 10.0 mi ENE 8.1 mph - N/A   Scattered Clouds
6:52 AM 57.9 °F 50.0 °F 75% 30.25 in 10.0 mi NE 8.1 mph - N/A   Clear
7:52 AM 59.0 °F 50.0 °F 72% 30.25 in 10.0 mi NE 8.1 mph - N/A   Clear
8:52 AM 60.1 °F 50.0 °F 69% 30.26 in 10.0 mi NE 11.5 mph - N/A   Clear
9:52 AM 61.0 °F 50.0 °F 67% 30.26 in 10.0 mi NE 9.2 mph 16.1 mph N/A   Clear
10:52 AM 62.1 °F 50.0 °F 65% 30.25 in 10.0 mi ENE 13.8 mph 20.7 mph N/A   Clear
11:52 AM 62.1 °F 50.0 °F 65% 30.25 in 10.0 mi ENE 10.4 mph 18.4 mph N/A   Scattered Clouds
12:52 PM 62.1 °F 50.0 °F 65% 30.24 in 10.0 mi East 11.5 mph - N/A   Scattered Clouds
1:00 PM 60.8 °F 50.0 °F 68% 30.23 in 10.0 mi ENE 11.5 mph 17.3 mph N/A   Mostly Cloudy
1:52 PM 61.0 °F 50.0 °F 67% 30.22 in 10.0 mi East 15.0 mph 18.4 mph N/A   Mostly Cloudy
2:52 PM 61.0 °F 50.0 °F 67% 30.22 in 10.0 mi East 12.7 mph 18.4 mph N/A   Mostly Cloudy
3:52 PM 61.0 °F 48.9 °F 64% 30.20 in 10.0 mi ENE 13.8 mph - N/A   Mostly Cloudy
4:52 PM 60.1 °F 48.0 °F 64% 30.19 in 10.0 mi NE 11.5 mph - N/A   Overcast
5:52 PM 59.0 °F 48.0 °F 67% 30.17 in 10.0 mi East 9.2 mph - N/A   Overcast
6:52 PM 57.9 °F 48.0 °F 70% 30.16 in 10.0 mi ENE 8.1 mph - N/A   Mostly Cloudy
7:52 PM 57.9 °F 48.0 °F 70% 30.15 in 10.0 mi NE 5.8 mph - N/A   Overcast
8:52 PM 57.9 °F 50.0 °F 75% 30.16 in 10.0 mi East 8.1 mph - N/A   Overcast
9:52 PM 57.0 °F 50.0 °F 77% 30.17 in 10.0 mi East 4.6 mph - N/A   Mostly Cloudy
10:50 PM 57.2 °F 51.8 °F 82% 30.16 in 10.0 mi ESE 4.6 mph - N/A   Overcast
10:52 PM 55.9 °F 51.1 °F 84% 30.17 in 10.0 mi East 6.9 mph - N/A   Overcast
11:52 PM 55.0 °F 51.1 °F 86% 30.17 in 10.0 mi Calm Calm - N/A   Overcast